星链-3919 (STARLINK-3919 )

导读 | 星芒AI

STARLINK-3919 是 SpaceX Starlink 卫星互联网项目中的第 3919 颗卫星。该卫星属于星链计划的中轨道卫星群,旨在为全球用户提供高速、低延迟的互联网服务。它于 2024 年发射,运行在约 550 公里的轨道高度,采用先进的推进和通信技术,支持宽带数据传输。作为星链星座的一部分,STARLINK-3919 有助于扩大覆盖范围,提升网络性能,特别是在偏远和网络基础设施薄弱的地区。

基本信息
目录编号:
52580
目录名称:
STARLINK-3919
国际标识:
2022-051AW
轨道中心:
EARTH
卫星名称:
星链-3919
卫星全名:
星链-3919 (STARLINK-3919 )
卫星状态:
在轨 (已飞行1318 天)
发射日期:
2022-05-13 UTC
国别 :
美国 (US)
星等 :
--
轨道信息
数据来源 国际轨道数据 AOE轨道数据
星历时间 2025-12-21T02:27:20+0800
9小时前
查看轨道信息
2025-12-20T12:00:00+0800
23小时前
查看轨道信息
半长轴 6917.881km 6917.87km
偏心率 0.0001503 0.0001789
轨道倾角 53.219° 53.219°
近地点辐角 86.902° 88.706°
升交点赤经 128.418° 131.123°
平近点角 273.214° 237.993°
近地点 538.704km 538.495km
远地点 540.784km 540.971km
周期 95.438分钟 95.437分钟
每日圈数 15.0884 15.088437
详细信息
固有亮度:
5
最大亮度:
2.5
卫星平台:
Starlink v1.5
覆盖范围:
全球
运营商:
太空探索技术公司
运营商所在国:
美国
制造商(研发单位):
太空探索技术公司
制造商所在国:
美国
使用方式:
暂无
卫星简介
星链(Starlink)计划是由太空探索技术公司(SpaceX)提出的一个巨型低轨卫星互联网星座项目,计划在2019年至2024年间在太空搭建由约1.2万颗卫星组成的“星链”网络,其中1584颗将部署在地球上空550千米处的近地轨道,并从2020年开始工作。该卫星仍在工作。
2D轨道图
3D轨道图
轨道高度分析图
轨道倾角分析图
轨道综合分析图
查看轨道综合分析图